Location: La Bastide
(43.1661°N, 1.2755°E)
Time: 22:18:16
(UTC+00:00)

SKYMED 2 - Pass Details

Date: 13 December 2025
Orbit: 622 x 623 km, 97.9° (Epoch: 21 January)

Event Time Altitude Azimuth Distance (km) Brightness Sun altitude
Exits shadow 17:32:54 12° 30° (NNE) 1,899 5.6 -12.8°
Maximum altitude 17:36:43 39° 98° (E) 946 4.1 -13.5°
Drops below altitude 10° 17:40:46 10° 167° (SSE) 1,986 6.2 -14.1°
Sets 17:43:03 0° 175° (S) 2,886 7.2 -14.5°
